User: anonymous   Login
Location: Unspecified
(0.0000°N, 0.0000°E)
Time: 11:34:19
(UTC+00:00)
Language:

KAGAYAKI - Orbit

View from above orbital plane
View from above orbital plane
View from above satellite
View from above satellite

Ground track
Ground track

The orbit data is extracted from the following two-line orbital elements,

1 33495U 09002D   17264.93911062 +.00000018 +00000-0 +11304-4 0  9998
2 33495 098.3409 062.2106 0009411 082.0710 278.1564 14.72041502464642
Epoch (UTC): 21 September 2017 22:32:19
Eccentricity: 0.0009411
inclination: 98.3409°
perigee height: 648 km
apogee height: 661 km
right ascension of ascending node: 62.2106°
argument of perigee: 82.0710°
revolutions per day: 14.72041502
mean anomaly at epoch: 278.1564°
orbit number at epoch: 46464

The dashed part of the orbit path shows where the satellite is in the earth's shadow,  

DLR